Time,TemperatureF,DewpointF,PressureIn,WindDirection,WindDirectionDegrees,WindSpeedMPH,WindSpeedGustMPH,Humidity,HourlyPrecipIn,Conditions,Clouds,dailyrainin,SoftwareType,DateUTC
2013-01-30 00:00:00,60.8,55.4,29.68,South,188,6.0,18.0,82,0.00,,OVC OVC///CB,0.00,WUHU216DAVISVP2,2013-01-30 05:00:00,
2013-01-30 00:02:00,60.8,55.4,29.68,South,181,8.0,18.0,82,0.00,,OVC OVC///CB,0.00,WUHU216DAVISVP2,2013-01-30 05:02:00,
2013-01-30 00:03:00,60.8,55.4,29.68,SSE,149,6.0,17.0,82,0.00,,OVC OVC///CB,0.00,WUHU216DAVISVP2,2013-01-30 05:03:00,
2013-01-30 00:08:00,60.9,55.9,29.67,SW,224,5.0,19.0,83,0.00,,OVC OVC///CB,0.00,WUHU216DAVISVP2,2013-01-30 05:08:00,
2013-01-30 00:13:00,61.0,55.6,29.67,SSE,160,6.0,19.0,82,0.00,,OVC OVC///CB,0.00,WUHU216DAVISVP2,2013-01-30 05:13:00,
2013-01-30 00:18:00,61.1,56.1,29.67,SSW,194,4.0,19.0,83,0.00,,OVC OVC///CB,0.00,WUHU216DAVISVP2,2013-01-30 05:18:00,
2013-01-30 00:23:00,61.2,56.2,29.66,SSW,211,6.0,19.0,83,0.00,,OVC OVC///CB,0.00,WUHU216DAVISVP2,2013-01-30 05:23:00,
2013-01-30 00:28:00,61.2,56.2,29.66,SSE,167,11.0,18.0,83,0.00,,OVC OVC///CB,0.00,WUHU216DAVISVP2,2013-01-30 05:28:00,
2013-01-30 00:33:00,61.4,56.3,29.66,SSE,167,9.0,20.0,83,0.00,,OVC OVC///CB,0.00,WUHU216DAVISVP2,2013-01-30 05:33:00,
2013-01-30 00:38:00,61.3,56.3,29.65,South,181,9.0,21.0,83,0.00,,OVC OVC///CB,0.00,WUHU216DAVISVP2,2013-01-30 05:38:00,
2013-01-30 00:43:00,61.3,56.3,29.65,SSW,193,8.0,21.0,83,0.00,,OVC OVC///CB,0.00,WUHU216DAVISVP2,2013-01-30 05:43:00,
2013-01-30 00:48:00,61.3,56.3,29.65,SSW,197,8.0,21.0,83,0.00,,OVC OVC///CB,0.00,WUHU216DAVISVP2,2013-01-30 05:48:00,
2013-01-30 00:53:00,61.3,55.9,29.64,SSW,198,8.0,18.0,82,0.00,,OVC OVC///CB,0.00,WUHU216DAVISVP2,2013-01-30 05:53:00,
2013-01-30 00:58:00,61.3,55.9,29.64,SE,145,8.0,20.0,82,0.00,,OVC OVC///CB,0.00,WUHU216DAVISVP2,2013-01-30 05:58:00,
2013-01-30 01:03:00,61.4,56.0,29.64,South,190,13.0,20.0,82,0.00,,OVC OVC///CB,0.00,WUHU216DAVISVP2,2013-01-30 06:03:00,
2013-01-30 01:08:00,61.4,56.0,29.64,SSW,195,16.0,20.0,82,0.00,,OVC OVC///CB,0.00,WUHU216DAVISVP2,2013-01-30 06:08:00,
2013-01-30 01:13:00,61.4,56.0,29.63,SW,228,6.0,17.0,82,0.00,,OVC OVC///CB,0.00,WUHU216DAVISVP2,2013-01-30 06:13:00,
2013-01-30 01:18:00,61.5,56.1,29.63,South,191,7.0,19.0,82,0.00,,OVC OVC///CB,0.00,WUHU216DAVISVP2,2013-01-30 06:18:00,
2013-01-30 01:23:00,61.6,56.2,29.63,South,179,8.0,19.0,82,0.00,,OVC OVC///CB,0.00,WUHU216DAVISVP2,2013-01-30 06:23:00,
2013-01-30 01:28:00,61.7,56.0,29.62,SSW,197,13.0,22.0,81,0.00,,OVC OVC///CB,0.00,WUHU216DAVISVP2,2013-01-30 06:28:00,
2013-01-30 01:34:00,61.6,55.9,29.62,WSW,244,6.0,22.0,81,0.00,,OVC OVC///CB,0.00,WUHU216DAVISVP2,2013-01-30 06:34:00,
2013-01-30 01:39:00,61.4,55.7,29.62,South,171,8.0,22.0,81,0.00,,OVC OVC///CB,0.00,WUHU216DAVISVP2,2013-01-30 06:39:00,
2013-01-30 01:44:00,61.5,55.5,29.61,SSW,195,9.0,19.0,80,0.00,,OVC OVC///CB,0.00,WUHU216DAVISVP2,2013-01-30 06:44:00,
2013-01-30 01:49:00,61.5,55.5,29.61,South,174,11.0,17.0,80,0.00,,OVC OVC///CB,0.00,WUHU216DAVISVP2,2013-01-30 06:49:00,
2013-01-30 01:54:00,61.4,55.0,29.61,SSW,207,4.0,19.0,79,0.00,,OVC OVC///CB,0.00,WUHU216DAVISVP2,2013-01-30 06:54:00,
2013-01-30 01:59:00,61.4,55.0,29.60,SSW,197,5.0,19.0,79,0.00,,OVC OVC///CB,0.00,WUHU216DAVISVP2,2013-01-30 06:59:00,
2013-01-30 02:04:00,61.2,54.8,29.60,SW,215,5.0,20.0,79,0.00,,OVC OVC///CB,0.00,WUHU216DAVISVP2,2013-01-30 07:04:00,
2013-01-30 02:09:00,61.2,54.5,29.59,SSW,193,22.0,22.0,78,0.00,,OVC OVC///CB,0.00,WUHU216DAVISVP2,2013-01-30 07:09:00,
2013-01-30 02:14:00,61.4,54.4,29.59,South,181,8.0,26.0,77,0.00,,OVC OVC///CB,0.00,WUHU216DAVISVP2,2013-01-30 07:14:00,
2013-01-30 02:19:00,61.5,54.4,29.59,South,176,16.0,26.0,77,0.00,,OVC OVC///CB,0.00,WUHU216DAVISVP2,2013-01-30 07:19:00,
2013-01-30 02:24:00,61.4,54.4,29.59,SSW,211,8.0,26.0,77,0.00,,OVC OVC///CB,0.00,WUHU216DAVISVP2,2013-01-30 07:24:00,
2013-01-30 02:29:00,61.5,54.1,29.59,SSW,197,4.0,18.0,76,0.00,,OVC OVC///CB,0.00,WUHU216DAVISVP2,2013-01-30 07:29:00,
2013-01-30 02:34:00,61.4,54.0,29.58,WSW,238,6.0,18.0,76,0.00,,OVC OVC///CB,0.00,WUHU216DAVISVP2,2013-01-30 07:34:00,
2013-01-30 02:39:00,61.5,54.1,29.58,SE,139,4.0,18.0,76,0.00,,OVC OVC///CB,0.00,WUHU216DAVISVP2,2013-01-30 07:39:00,
2013-01-30 02:44:00,61.5,54.1,29.58,SSE,149,6.0,19.0,76,0.00,,OVC OVC///CB,0.00,WUHU216DAVISVP2,2013-01-30 07:44:00,
2013-01-30 02:49:00,61.6,54.2,29.58,SSW,210,13.0,22.0,76,0.00,,OVC OVC///CB,0.00,WUHU216DAVISVP2,2013-01-30 07:49:00,
2013-01-30 02:54:00,61.7,54.3,29.57,South,187,8.0,22.0,76,0.00,,OVC OVC///CB,0.00,WUHU216DAVISVP2,2013-01-30 07:54:00,
2013-01-30 03:00:00,61.5,54.1,29.57,South,176,6.0,22.0,76,0.00,,OVC OVC///CB,0.00,WUHU216DAVISVP2,2013-01-30 08:00:00,
2013-01-30 03:04:00,61.6,54.2,29.56,SW,225,3.0,22.0,76,0.00,,OVC OVC///CB,0.00,WUHU216DAVISVP2,2013-01-30 08:04:00,
2013-01-30 03:09:00,61.5,54.1,29.56,SW,215,10.0,21.0,76,0.00,,OVC OVC///CB,0.00,WUHU216DAVISVP2,2013-01-30 08:09:00,
2013-01-30 03:14:00,61.4,54.0,29.55,SE,142,9.0,21.0,76,0.00,,OVC OVC///CB,0.00,WUHU216DAVISVP2,2013-01-30 08:14:00,
2013-01-30 03:19:00,61.4,54.0,29.55,South,189,5.0,21.0,76,0.00,,OVC OVC///CB,0.00,WUHU216DAVISVP2,2013-01-30 08:19:00,
2013-01-30 03:24:00,61.3,53.9,29.55,SSW,205,13.0,23.0,76,0.00,,OVC OVC///CB,0.00,WUHU216DAVISVP2,2013-01-30 08:24:00,
2013-01-30 03:29:00,61.3,53.9,29.54,SSW,205,18.0,25.0,76,0.00,,OVC OVC///CB,0.00,WUHU216DAVISVP2,2013-01-30 08:29:00,
2013-01-30 03:34:00,61.2,53.8,29.53,SE,142,5.0,25.0,76,0.00,,OVC OVC///CB,0.00,WUHU216DAVISVP2,2013-01-30 08:34:00,
2013-01-30 03:39:00,60.9,53.5,29.53,South,186,13.0,25.0,76,0.00,,OVC OVC///CB,0.00,WUHU216DAVISVP2,2013-01-30 08:39:00,
2013-01-30 03:44:00,60.9,53.5,29.52,ESE,117,6.0,25.0,76,0.00,,OVC OVC///CB,0.00,WUHU216DAVISVP2,2013-01-30 08:44:00,
2013-01-30 03:49:00,60.7,53.3,29.52,SE,128,5.0,24.0,76,0.00,,OVC OVC///CB,0.00,WUHU216DAVISVP2,2013-01-30 08:49:00,
2013-01-30 03:55:00,60.6,53.6,29.51,SSW,204,6.0,21.0,77,0.00,,OVC OVC///CB,0.00,WUHU216DAVISVP2,2013-01-30 08:55:00,
2013-01-30 04:00:00,60.6,53.6,29.51,SSE,156,6.0,17.0,77,0.00,,OVC OVC///CB,0.00,WUHU216DAVISVP2,2013-01-30 09:00:00,
2013-01-30 04:05:00,60.5,53.5,29.51,SSE,152,10.0,17.0,77,0.00,,OVC OVC///CB,0.00,WUHU216DAVISVP2,2013-01-30 09:05:00,
2013-01-30 04:10:00,60.6,53.6,29.50,South,170,10.0,19.0,77,0.00,,OVC OVC///CB,0.00,WUHU216DAVISVP2,2013-01-30 09:10:00,
2013-01-30 04:15:00,60.6,53.6,29.50,SSW,208,7.0,19.0,77,0.00,,OVC OVC///CB,0.00,WUHU216DAVISVP2,2013-01-30 09:15:00,
2013-01-30 04:20:00,60.7,53.7,29.49,South,190,14.0,19.0,77,0.00,,OVC OVC///CB,0.00,WUHU216DAVISVP2,2013-01-30 09:20:00,
2013-01-30 04:24:00,60.7,53.7,29.49,South,181,7.0,19.0,77,0.00,,OVC OVC///CB,0.00,WUHU216DAVISVP2,2013-01-30 09:24:00,
2013-01-30 04:29:00,60.6,53.6,29.49,SW,219,16.0,18.0,77,0.00,,OVC OVC///CB,0.00,WUHU216DAVISVP2,2013-01-30 09:29:00,
2013-01-30 04:34:00,60.7,53.7,29.48,SSW,203,14.0,18.0,77,0.00,,OVC OVC///CB,0.00,WUHU216DAVISVP2,2013-01-30 09:34:00,
2013-01-30 04:39:00,61.1,53.7,29.48,SW,226,16.0,18.0,76,0.00,,OVC OVC///CB,0.00,WUHU216DAVISVP2,2013-01-30 09:39:00,
2013-01-30 04:44:00,61.3,53.9,29.48,South,188,6.0,18.0,76,0.00,,OVC OVC///CB,0.00,WUHU216DAVISVP2,2013-01-30 09:44:00,
2013-01-30 04:49:00,61.4,54.0,29.48,South,190,8.0,20.0,76,0.00,,OVC OVC///CB,0.00,WUHU216DAVISVP2,2013-01-30 09:49:00,
2013-01-30 04:54:00,61.3,54.3,29.47,South,179,9.0,20.0,77,0.00,,OVC OVC///CB,0.00,WUHU216DAVISVP2,2013-01-30 09:54:00,
2013-01-30 04:59:00,61.5,54.1,29.47,South,175,6.0,20.0,76,0.00,,OVC OVC///CB,0.00,WUHU216DAVISVP2,2013-01-30 09:59:00,
2013-01-30 05:04:00,61.5,54.1,29.47,SSE,158,5.0,23.0,76,0.00,,OVC OVC///CB,0.00,WUHU216DAVISVP2,2013-01-30 10:04:00,
2013-01-30 05:09:00,61.6,54.2,29.47,SSW,194,7.0,23.0,76,0.00,,OVC OVC///CB,0.00,WUHU216DAVISVP2,2013-01-30 10:09:00,
2013-01-30 05:14:00,61.6,54.5,29.46,SE,142,5.0,23.0,77,0.00,,OVC OVC///CB,0.00,WUHU216DAVISVP2,2013-01-30 10:14:00,
2013-01-30 05:19:00,61.7,54.6,29.46,SW,221,8.0,23.0,77,0.00,,OVC OVC///CB,0.00,WUHU216DAVISVP2,2013-01-30 10:19:00,
2013-01-30 05:24:00,61.8,54.7,29.46,SW,215,15.0,20.0,77,0.00,,OVC OVC///CB,0.00,WUHU216DAVISVP2,2013-01-30 10:24:00,
2013-01-30 05:29:00,62.1,55.0,29.45,South,174,18.0,20.0,77,0.00,,OVC OVC///CB,0.00,WUHU216DAVISVP2,2013-01-30 10:29:00,
2013-01-30 05:34:00,62.2,55.1,29.45,SW,228,7.0,20.0,77,0.00,,OVC OVC///CB,0.00,WUHU216DAVISVP2,2013-01-30 10:34:00,
2013-01-30 05:39:00,62.4,55.3,29.45,SSW,199,9.0,24.0,77,0.00,,OVC OVC///CB,0.00,WUHU216DAVISVP2,2013-01-30 10:39:00,
2013-01-30 05:44:00,62.7,55.3,29.44,SW,226,6.0,24.0,76,0.00,,OVC OVC///CB,0.00,WUHU216DAVISVP2,2013-01-30 10:44:00,
2013-01-30 05:49:00,62.9,55.5,29.44,SSW,201,12.0,24.0,76,0.00,,OVC OVC///CB,0.00,WUHU216DAVISVP2,2013-01-30 10:49:00,
2013-01-30 05:54:00,63.0,55.6,29.43,South,187,8.0,24.0,76,0.00,,OVC OVC///CB,0.00,WUHU216DAVISVP2,2013-01-30 10:54:00,
2013-01-30 05:59:00,63.2,55.8,29.43,SSW,197,6.0,22.0,76,0.00,,OVC OVC///CB,0.00,WUHU216DAVISVP2,2013-01-30 10:59:00,
2013-01-30 06:04:00,63.4,55.9,29.43,WSW,238,13.0,22.0,76,0.00,,OVC OVC///CB,0.00,WUHU216DAVISVP2,2013-01-30 11:04:00,
2013-01-30 06:09:00,63.7,55.9,29.42,SW,226,5.0,27.0,75,0.00,,OVC OVC///CB,0.00,WUHU216DAVISVP2,2013-01-30 11:09:00,
2013-01-30 06:14:00,63.8,56.0,29.42,SSW,210,15.0,27.0,75,0.00,,OVC OVC///CB,0.00,WUHU216DAVISVP2,2013-01-30 11:14:00,
2013-01-30 06:19:00,63.9,56.1,29.41,SSW,207,8.0,27.0,75,0.00,,OVC OVC///CB,0.00,WUHU216DAVISVP2,2013-01-30 11:19:00,
2013-01-30 06:24:00,64.0,56.2,29.41,South,187,23.0,27.0,75,0.00,,OVC OVC///CB,0.00,WUHU216DAVISVP2,2013-01-30 11:24:00,
2013-01-30 06:29:00,64.4,56.6,29.41,South,169,10.0,28.0,75,0.00,,OVC OVC///CB,0.00,WUHU216DAVISVP2,2013-01-30 11:29:00,
2013-01-30 06:34:00,64.5,56.7,29.41,WSW,244,19.0,29.0,75,0.00,,OVC OVC///CB,0.00,WUHU216DAVISVP2,2013-01-30 11:34:00,
2013-01-30 06:39:00,64.6,56.8,29.41,SSW,199,5.0,29.0,75,0.00,,OVC OVC///CB,0.00,WUHU216DAVISVP2,2013-01-30 11:39:00,
2013-01-30 06:44:00,64.5,56.7,29.40,South,191,17.0,29.0,75,0.00,,OVC OVC///CB,0.00,WUHU216DAVISVP2,2013-01-30 11:44:00,
2013-01-30 06:49:00,64.6,56.8,29.40,South,183,30.0,30.0,75,0.00,,OVC OVC///CB,0.00,WUHU216DAVISVP2,2013-01-30 11:49:00,
2013-01-30 06:54:00,64.7,56.9,29.40,SSW,193,11.0,31.0,75,0.00,,OVC OVC///CB,0.00,WUHU216DAVISVP2,2013-01-30 11:54:00,
2013-01-30 06:59:00,64.8,57.0,29.40,South,184,7.0,31.0,75,0.00,,OVC OVC///CB,0.00,WUHU216DAVISVP2,2013-01-30 11:59:00,
2013-01-30 07:04:00,65.0,57.1,29.39,South,188,8.0,31.0,75,0.00,,OVC OVC///CB,0.00,WUHU216DAVISVP2,2013-01-30 12:04:00,
2013-01-30 07:10:00,65.1,57.2,29.39,SSW,198,16.0,30.0,75,0.00,,OVC OVC///CB,0.00,WUHU216DAVISVP2,2013-01-30 12:10:00,
2013-01-30 07:15:00,65.1,57.2,29.38,South,179,14.0,30.0,75,0.00,,OVC OVC///CB,0.00,WUHU216DAVISVP2,2013-01-30 12:15:00,
2013-01-30 07:20:00,65.2,57.3,29.37,SSW,203,10.0,30.0,75,0.00,,OVC OVC///CB,0.00,WUHU216DAVISVP2,2013-01-30 12:20:00,
2013-01-30 07:25:00,65.0,57.1,29.37,South,172,5.0,30.0,75,0.00,,OVC OVC///CB,0.00,WUHU216DAVISVP2,2013-01-30 12:25:00,
2013-01-30 07:30:00,65.2,57.3,29.36,SSE,149,9.0,29.0,75,0.00,,OVC OVC///CB,0.00,WUHU216DAVISVP2,2013-01-30 12:30:00,
2013-01-30 07:35:00,65.4,57.5,29.36,South,190,16.0,24.0,75,0.00,,OVC OVC///CB,0.00,WUHU216DAVISVP2,2013-01-30 12:35:00,
2013-01-30 07:40:00,65.7,57.5,29.36,SSW,200,8.0,31.0,74,0.00,,OVC OVC///CB,0.00,WUHU216DAVISVP2,2013-01-30 12:40:00,
2013-01-30 07:45:00,65.8,57.6,29.35,South,188,7.0,31.0,74,0.00,,OVC OVC///CB,0.00,WUHU216DAVISVP2,2013-01-30 12:45:00,
2013-01-30 07:50:00,65.9,57.7,29.35,South,188,27.0,31.0,74,0.00,,OVC OVC///CB,0.00,WUHU216DAVISVP2,2013-01-30 12:50:00,
2013-01-30 07:55:00,66.2,57.9,29.34,South,188,7.0,31.0,74,0.00,,OVC OVC///CB,0.00,WUHU216DAVISVP2,2013-01-30 12:55:00,
2013-01-30 08:00:00,66.0,57.8,29.34,South,174,12.0,31.0,74,0.00,,OVC OVC///CB,0.00,WUHU216DAVISVP2,2013-01-30 13:00:00,
2013-01-30 08:05:00,66.0,57.8,29.34,South,170,14.0,31.0,74,0.00,,OVC OVC///CB,0.00,WUHU216DAVISVP2,2013-01-30 13:05:00,
2013-01-30 08:10:00,66.3,58.0,29.34,SSW,210,11.0,28.0,74,0.00,,OVC OVC///CB,0.00,WUHU216DAVISVP2,2013-01-30 13:10:00,
2013-01-30 08:15:00,66.4,58.1,29.34,SSW,195,13.0,29.0,74,0.00,,OVC OVC///CB,0.00,WUHU216DAVISVP2,2013-01-30 13:15:00,
2013-01-30 08:20:00,66.1,58.2,29.34,SW,219,7.0,30.0,75,0.00,,OVC OVC///CB,0.00,WUHU216DAVISVP2,2013-01-30 13:20:00,
2013-01-30 08:25:00,65.8,58.3,29.35,SSW,212,13.0,38.0,76,0.00,,OVC OVC///CB,0.00,WUHU216DAVISVP2,2013-01-30 13:25:00,
2013-01-30 08:30:00,65.2,58.4,29.35,South,188,9.0,38.0,78,0.00,,OVC OVC///CB,0.00,WUHU216DAVISVP2,2013-01-30 13:30:00,
2013-01-30 08:35:00,64.6,58.8,29.36,SSW,200,7.0,38.0,81,0.00,,OVC OVC///CB,0.00,WUHU216DAVISVP2,2013-01-30 13:35:00,
2013-01-30 08:40:00,64.0,58.9,29.37,SSW,203,8.0,38.0,83,0.00,,OVC OVC///CB,0.00,WUHU216DAVISVP2,2013-01-30 13:40:00,
2013-01-30 08:45:00,63.4,59.0,29.41,SW,226,17.0,29.0,85,0.00,,OVC OVC///CB,0.00,WUHU216DAVISVP2,2013-01-30 13:45:00,
2013-01-30 08:50:00,61.3,58.4,29.45,SW,215,13.0,29.0,90,0.04,,OVC OVC///CB,0.04,WUHU216DAVISVP2,2013-01-30 13:50:00,
2013-01-30 08:55:00,59.3,57.4,29.46,NW,307,7.0,29.0,93,0.04,,OVC OVC///CB,0.04,WUHU216DAVISVP2,2013-01-30 13:55:00,
2013-01-30 09:00:00,58.2,56.6,29.47,NW,317,1.0,29.0,94,0.05,,OVC OVC///CB,0.05,WUHU216DAVISVP2,2013-01-30 14:00:00,
2013-01-30 09:05:00,57.4,56.1,29.47,WNW,295,5.0,29.0,95,0.05,,OVC OVC///CB,0.05,WUHU216DAVISVP2,2013-01-30 14:05:00,
2013-01-30 09:10:00,57.1,55.8,29.47,WSW,245,6.0,19.0,95,0.05,,OVC OVC///CB,0.05,WUHU216DAVISVP2,2013-01-30 14:10:00,
2013-01-30 09:15:00,56.8,55.5,29.47,West,263,0.0,13.0,95,0.05,,OVC OVC///CB,0.05,WUHU216DAVISVP2,2013-01-30 14:15:00,
2013-01-30 09:20:00,56.7,55.7,29.47,WSW,250,0.0,13.0,96,0.05,,OVC OVC///CB,0.05,WUHU216DAVISVP2,2013-01-30 14:20:00,
2013-01-30 09:25:00,56.6,55.6,29.47,SW,233,0.0,11.0,96,0.05,,OVC OVC///CB,0.05,WUHU216DAVISVP2,2013-01-30 14:25:00,
2013-01-30 09:30:00,56.5,55.5,29.48,WSW,246,3.0,5.0,96,0.06,,OVC OVC///CB,0.06,WUHU216DAVISVP2,2013-01-30 14:30:00,
2013-01-30 09:35:00,56.4,55.4,29.47,SW,235,0.0,6.0,96,0.06,,OVC OVC///CB,0.06,WUHU216DAVISVP2,2013-01-30 14:35:00,
2013-01-30 09:40:00,56.2,55.4,29.47,WSW,239,1.0,6.0,97,0.07,,OVC OVC///CB,0.07,WUHU216DAVISVP2,2013-01-30 14:40:00,
2013-01-30 09:45:00,56.1,55.3,29.47,SSW,211,0.0,6.0,97,0.07,,OVC OVC///CB,0.07,WUHU216DAVISVP2,2013-01-30 14:45:00,
2013-01-30 09:50:00,56.0,55.2,29.46,South,187,0.0,3.0,97,0.04,,OVC OVC///CB,0.08,WUHU216DAVISVP2,2013-01-30 14:50:00,
2013-01-30 09:55:00,55.9,55.1,29.45,South,169,0.0,3.0,97,0.05,,OVC OVC///CB,0.09,WUHU216DAVISVP2,2013-01-30 14:55:00,
2013-01-30 10:00:00,55.8,55.0,29.45,SSE,165,0.0,3.0,97,0.05,,OVC OVC///CB,0.10,WUHU216DAVISVP2,2013-01-30 15:00:00,
2013-01-30 10:05:00,55.6,54.8,29.46,South,180,2.0,4.0,97,0.05,,OVC OVC///CB,0.10,WUHU216DAVISVP2,2013-01-30 15:05:00,
2013-01-30 10:10:00,55.6,55.1,29.46,SSW,194,0.0,5.0,98,0.06,,OVC OVC///CB,0.11,WUHU216DAVISVP2,2013-01-30 15:10:00,
2013-01-30 10:15:00,55.5,55.0,29.45,SSE,155,0.0,5.0,98,0.07,,OVC OVC///CB,0.12,WUHU216DAVISVP2,2013-01-30 15:15:00,
2013-01-30 10:20:00,55.5,55.0,29.45,South,179,0.0,5.0,98,0.08,,OVC OVC///CB,0.13,WUHU216DAVISVP2,2013-01-30 15:20:00,
2013-01-30 10:25:00,55.4,54.9,29.44,SSE,162,1.0,5.0,98,0.08,,OVC OVC///CB,0.13,WUHU216DAVISVP2,2013-01-30 15:25:00,
2013-01-30 10:30:00,55.4,54.9,29.44,SE,146,1.0,4.0,98,0.08,,OVC OVC///CB,0.14,WUHU216DAVISVP2,2013-01-30 15:30:00,
2013-01-30 10:35:00,55.3,54.8,29.43,SSE,160,0.0,4.0,98,0.09,,OVC OVC///CB,0.15,WUHU216DAVISVP2,2013-01-30 15:35:00,
2013-01-30 10:40:00,55.3,54.8,29.43,SSE,167,0.0,3.0,98,0.08,,OVC OVC///CB,0.15,WUHU216DAVISVP2,2013-01-30 15:40:00,
2013-01-30 10:45:00,55.3,54.8,29.43,SSE,167,0.0,10.0,98,0.07,,OVC OVC///CB,0.15,WUHU216DAVISVP2,2013-01-30 15:45:00,
2013-01-30 10:50:00,55.4,54.9,29.43,SSW,212,7.0,10.0,98,0.08,,OVC OVC///CB,0.16,WUHU216DAVISVP2,2013-01-30 15:50:00,
2013-01-30 10:55:00,55.5,55.0,29.44,SW,222,5.0,11.0,98,0.07,,OVC OVC///CB,0.16,WUHU216DAVISVP2,2013-01-30 15:55:00,
2013-01-30 11:00:00,55.6,54.8,29.44,West,266,4.0,11.0,97,0.07,,OVC OVC///CB,0.17,WUHU216DAVISVP2,2013-01-30 16:00:00,
2013-01-30 11:05:00,55.8,55.0,29.43,SW,225,8.0,11.0,97,0.07,,OVC OVC///CB,0.17,WUHU216DAVISVP2,2013-01-30 16:05:00,
2013-01-30 11:10:00,55.9,55.1,29.43,SSW,205,4.0,11.0,97,0.06,,OVC OVC///CB,0.17,WUHU216DAVISVP2,2013-01-30 16:10:00,
2013-01-30 11:15:00,56.0,55.0,29.42,SW,226,4.0,11.0,96,0.05,,OVC OVC///CB,0.17,WUHU216DAVISVP2,2013-01-30 16:15:00,
2013-01-30 11:20:00,56.0,55.0,29.41,SW,224,9.0,10.0,96,0.04,,OVC OVC///CB,0.17,WUHU216DAVISVP2,2013-01-30 16:20:00,
2013-01-30 11:25:00,56.0,55.0,29.41,SSW,195,5.0,10.0,96,0.04,,OVC OVC///CB,0.17,WUHU216DAVISVP2,2013-01-30 16:25:00,
2013-01-30 11:30:00,56.0,55.0,29.41,SW,215,2.0,10.0,96,0.03,,OVC OVC///CB,0.17,WUHU216DAVISVP2,2013-01-30 16:30:00,
2013-01-30 11:35:00,55.9,54.9,29.40,SW,221,4.0,10.0,96,0.02,,OVC OVC///CB,0.17,WUHU216DAVISVP2,2013-01-30 16:35:00,
2013-01-30 11:40:00,56.0,54.7,29.41,South,174,5.0,12.0,95,0.02,,OVC OVC///CB,0.17,WUHU216DAVISVP2,2013-01-30 16:40:00,
2013-01-30 11:45:00,56.1,54.8,29.41,SW,228,5.0,14.0,95,0.02,,OVC OVC///CB,0.17,WUHU216DAVISVP2,2013-01-30 16:45:00,
2013-01-30 11:50:00,56.2,54.9,29.42,SW,215,6.0,14.0,95,0.01,,OVC OVC///CB,0.17,WUHU216DAVISVP2,2013-01-30 16:50:00,
2013-01-30 11:55:00,56.3,54.7,29.44,SSW,195,9.0,16.0,94,0.01,,OVC OVC///CB,0.17,WUHU216DAVISVP2,2013-01-30 16:55:00,
2013-01-30 12:00:00,56.4,54.8,29.45,WSW,244,7.0,16.0,94,0.00,,OVC OVC///CB,0.17,WUHU216DAVISVP2,2013-01-30 17:00:00,
2013-01-30 12:05:00,56.4,54.8,29.44,SE,137,11.0,16.0,94,0.01,,OVC OVC///CB,0.18,WUHU216DAVISVP2,2013-01-30 17:05:00,
2013-01-30 12:10:00,56.2,54.6,29.43,SSE,162,20.0,23.0,94,0.01,,OVC OVC///CB,0.18,WUHU216DAVISVP2,2013-01-30 17:10:00,
2013-01-30 12:15:00,56.3,54.7,29.42,SW,226,15.0,25.0,94,0.01,,OVC OVC///CB,0.18,WUHU216DAVISVP2,2013-01-30 17:15:00,
2013-01-30 12:20:00,56.2,54.6,29.41,SSW,204,5.0,25.0,94,0.01,,OVC OVC///CB,0.18,WUHU216DAVISVP2,2013-01-30 17:20:00,
2013-01-30 12:26:00,56.1,54.5,29.40,South,181,7.0,25.0,94,0.02,,OVC OVC///CB,0.19,WUHU216DAVISVP2,2013-01-30 17:26:00,
2013-01-30 12:31:00,56.0,54.4,29.37,SSW,207,9.0,20.0,94,0.02,,OVC OVC///CB,0.19,WUHU216DAVISVP2,2013-01-30 17:31:00,
2013-01-30 12:36:00,55.8,54.5,29.36,South,190,11.0,20.0,95,0.02,,OVC OVC///CB,0.19,WUHU216DAVISVP2,2013-01-30 17:36:00,
2013-01-30 12:41:00,55.8,54.5,29.37,South,177,15.0,20.0,95,0.02,,OVC OVC///CB,0.19,WUHU216DAVISVP2,2013-01-30 17:41:00,
2013-01-30 12:46:00,55.7,54.4,29.37,SSW,205,14.0,18.0,95,0.02,,OVC OVC///CB,0.19,WUHU216DAVISVP2,2013-01-30 17:46:00,
2013-01-30 12:51:00,55.8,54.5,29.37,South,174,4.0,18.0,95,0.02,,OVC OVC///CB,0.19,WUHU216DAVISVP2,2013-01-30 17:51:00,
2013-01-30 12:56:00,55.7,54.1,29.36,South,190,6.0,17.0,94,0.02,,OVC OVC///CB,0.19,WUHU216DAVISVP2,2013-01-30 17:56:00,
2013-01-30 13:01:00,55.9,54.3,29.35,SSW,195,7.0,17.0,94,0.02,,OVC OVC///CB,0.19,WUHU216DAVISVP2,2013-01-30 18:01:00,
2013-01-30 13:06:00,55.9,54.3,29.35,SSE,158,4.0,18.0,94,0.01,,OVC OVC///CB,0.19,WUHU216DAVISVP2,2013-01-30 18:06:00,
2013-01-30 13:11:00,55.8,54.2,29.34,SSE,150,14.0,18.0,94,0.01,,OVC OVC///CB,0.19,WUHU216DAVISVP2,2013-01-30 18:11:00,
2013-01-30 13:16:00,55.9,54.0,29.34,South,186,9.0,18.0,93,0.01,,OVC OVC///CB,0.19,WUHU216DAVISVP2,2013-01-30 18:16:00,
2013-01-30 13:21:00,55.9,54.0,29.34,SSE,167,8.0,17.0,93,0.01,,OVC OVC///CB,0.19,WUHU216DAVISVP2,2013-01-30 18:21:00,
2013-01-30 13:26:00,55.8,53.9,29.34,SSW,195,13.0,18.0,93,0.00,,OVC OVC///CB,0.19,WUHU216DAVISVP2,2013-01-30 18:26:00,
2013-01-30 13:31:00,55.9,53.7,29.34,SSE,149,6.0,18.0,92,0.00,,OVC OVC///CB,0.19,WUHU216DAVISVP2,2013-01-30 18:31:00,
2013-01-30 13:36:00,55.9,53.7,29.33,ESE,120,6.0,18.0,92,0.00,,OVC OVC///CB,0.19,WUHU216DAVISVP2,2013-01-30 18:36:00,
2013-01-30 13:41:00,55.9,53.7,29.33,SSW,193,9.0,18.0,92,0.00,,OVC OVC///CB,0.19,WUHU216DAVISVP2,2013-01-30 18:41:00,
2013-01-30 13:46:00,56.0,53.8,29.34,South,191,16.0,21.0,92,0.00,,OVC OVC///CB,0.19,WUHU216DAVISVP2,2013-01-30 18:46:00,
2013-01-30 13:51:00,56.0,53.8,29.35,SSW,212,8.0,21.0,92,0.00,,OVC OVC///CB,0.19,WUHU216DAVISVP2,2013-01-30 18:51:00,
2013-01-30 13:56:00,56.0,53.8,29.36,South,183,8.0,21.0,92,0.00,,OVC OVC///CB,0.19,WUHU216DAVISVP2,2013-01-30 18:56:00,
2013-01-30 14:01:00,56.0,53.5,29.37,SSW,203,7.0,21.0,91,0.00,,OVC OVC///CB,0.19,WUHU216DAVISVP2,2013-01-30 19:01:00,
2013-01-30 14:06:00,55.9,53.7,29.36,South,169,4.0,17.0,92,0.00,,OVC OVC///CB,0.19,WUHU216DAVISVP2,2013-01-30 19:06:00,
2013-01-30 14:11:00,55.7,53.5,29.35,SW,224,8.0,20.0,92,0.00,,OVC OVC///CB,0.19,WUHU216DAVISVP2,2013-01-30 19:11:00,
2013-01-30 14:16:00,55.5,53.6,29.34,South,169,11.0,20.0,93,0.00,,OVC OVC///CB,0.19,WUHU216DAVISVP2,2013-01-30 19:16:00,
2013-01-30 14:21:00,55.4,53.5,29.33,South,183,9.0,21.0,93,0.00,,OVC OVC///CB,0.19,WUHU216DAVISVP2,2013-01-30 19:21:00,
2013-01-30 14:26:00,55.3,53.4,29.33,South,184,6.0,21.0,93,0.00,,OVC OVC///CB,0.19,WUHU216DAVISVP2,2013-01-30 19:26:00,
2013-01-30 14:31:00,55.2,53.3,29.31,SSW,207,7.0,21.0,93,0.00,,OVC OVC///CB,0.19,WUHU216DAVISVP2,2013-01-30 19:31:00,
2013-01-30 14:36:00,55.2,53.3,29.31,South,181,7.0,21.0,93,0.00,,OVC OVC///CB,0.19,WUHU216DAVISVP2,2013-01-30 19:36:00,
2013-01-30 14:41:00,55.3,53.4,29.31,SSE,163,12.0,19.0,93,0.00,,OVC OVC///CB,0.19,WUHU216DAVISVP2,2013-01-30 19:41:00,
2013-01-30 14:46:00,55.4,53.2,29.31,SSW,203,6.0,21.0,92,0.00,,OVC OVC///CB,0.19,WUHU216DAVISVP2,2013-01-30 19:46:00,
2013-01-30 14:51:00,55.4,53.2,29.33,SW,217,4.0,22.0,92,0.00,,OVC OVC///CB,0.19,WUHU216DAVISVP2,2013-01-30 19:51:00,
2013-01-30 14:56:00,55.4,53.5,29.33,WSW,241,8.0,22.0,93,0.00,,OVC OVC///CB,0.19,WUHU216DAVISVP2,2013-01-30 19:56:00,
2013-01-30 15:01:00,55.3,53.4,29.33,WSW,242,5.0,22.0,93,0.00,,OVC OVC///CB,0.19,WUHU216DAVISVP2,2013-01-30 20:01:00,
2013-01-30 15:06:00,55.3,53.4,29.34,SW,225,10.0,22.0,93,0.00,,OVC OVC///CB,0.19,WUHU216DAVISVP2,2013-01-30 20:06:00,
2013-01-30 15:11:00,55.3,53.4,29.32,SSW,210,5.0,14.0,93,0.00,,OVC OVC///CB,0.19,WUHU216DAVISVP2,2013-01-30 20:11:00,
2013-01-30 15:16:00,55.3,53.4,29.31,SSE,165,6.0,13.0,93,0.00,,OVC OVC///CB,0.19,WUHU216DAVISVP2,2013-01-30 20:16:00,
2013-01-30 15:21:00,55.3,53.4,29.30,SSW,204,7.0,11.0,93,0.00,,OVC OVC///CB,0.19,WUHU216DAVISVP2,2013-01-30 20:21:00,
2013-01-30 15:26:00,55.3,53.4,29.34,SSW,195,3.0,11.0,93,0.00,,OVC OVC///CB,0.19,WUHU216DAVISVP2,2013-01-30 20:26:00,
2013-01-30 15:31:00,55.4,53.2,29.35,South,170,6.0,18.0,92,0.00,,OVC OVC///CB,0.19,WUHU216DAVISVP2,2013-01-30 20:31:00,
2013-01-30 15:36:00,55.4,53.2,29.34,SW,228,6.0,18.0,92,0.00,,OVC OVC///CB,0.19,WUHU216DAVISVP2,2013-01-30 20:36:00,
2013-01-30 15:41:00,55.4,53.2,29.33,SW,217,4.0,17.0,92,0.00,,OVC OVC///CB,0.19,WUHU216DAVISVP2,2013-01-30 20:41:00,
2013-01-30 15:46:00,55.3,53.4,29.33,SSW,207,8.0,17.0,93,0.00,,OVC OVC///CB,0.19,WUHU216DAVISVP2,2013-01-30 20:46:00,
2013-01-30 15:52:00,55.2,53.3,29.32,SSW,193,7.0,16.0,93,0.00,,OVC OVC///CB,0.19,WUHU216DAVISVP2,2013-01-30 20:52:00,
2013-01-30 15:57:00,55.1,53.2,29.32,SW,225,9.0,15.0,93,0.00,,OVC OVC///CB,0.19,WUHU216DAVISVP2,2013-01-30 20:57:00,
2013-01-30 16:02:00,55.2,53.3,29.33,SW,223,3.0,15.0,93,0.00,,OVC OVC///CB,0.19,WUHU216DAVISVP2,2013-01-30 21:02:00,
2013-01-30 16:07:00,55.2,53.3,29.33,WNW,287,2.0,14.0,93,0.00,,OVC OVC///CB,0.19,WUHU216DAVISVP2,2013-01-30 21:07:00,
2013-01-30 16:13:00,55.3,53.4,29.33,SW,217,5.0,17.0,93,0.00,,OVC OVC///CB,0.19,WUHU216DAVISVP2,2013-01-30 21:13:00,
2013-01-30 16:18:00,55.1,53.2,29.32,SSE,158,9.0,17.0,93,0.00,,OVC OVC///CB,0.19,WUHU216DAVISVP2,2013-01-30 21:18:00,
2013-01-30 16:23:00,55.0,53.1,29.31,SSW,194,7.0,17.0,93,0.00,,OVC OVC///CB,0.19,WUHU216DAVISVP2,2013-01-30 21:23:00,
2013-01-30 16:28:00,55.0,53.4,29.31,SSW,203,7.0,16.0,94,0.00,,OVC OVC///CB,0.19,WUHU216DAVISVP2,2013-01-30 21:28:00,
2013-01-30 16:33:00,54.9,53.3,29.30,SW,219,5.0,18.0,94,0.00,,OVC OVC///CB,0.19,WUHU216DAVISVP2,2013-01-30 21:33:00,
2013-01-30 16:38:00,54.8,53.2,29.28,SSW,198,2.0,18.0,94,0.00,,OVC OVC///CB,0.19,WUHU216DAVISVP2,2013-01-30 21:38:00,
2013-01-30 16:43:00,54.7,53.1,29.27,SSE,150,4.0,18.0,94,0.00,,OVC OVC///CB,0.19,WUHU216DAVISVP2,2013-01-30 21:43:00,
2013-01-30 16:48:00,54.7,53.1,29.27,SW,221,10.0,14.0,94,0.00,,OVC OVC///CB,0.19,WUHU216DAVISVP2,2013-01-30 21:48:00,
2013-01-30 16:53:00,54.7,53.4,29.26,SSW,208,3.0,12.0,95,0.00,,OVC OVC///CB,0.19,WUHU216DAVISVP2,2013-01-30 21:53:00,
2013-01-30 16:58:00,54.6,53.3,29.26,SSE,160,5.0,12.0,95,0.00,,OVC OVC///CB,0.19,WUHU216DAVISVP2,2013-01-30 21:58:00,
2013-01-30 17:03:00,54.7,53.4,29.26,SW,228,6.0,12.0,95,0.00,,OVC OVC///CB,0.19,WUHU216DAVISVP2,2013-01-30 22:03:00,
2013-01-30 17:08:00,54.7,53.4,29.26,South,187,8.0,13.0,95,0.00,,OVC OVC///CB,0.19,WUHU216DAVISVP2,2013-01-30 22:08:00,
2013-01-30 17:13:00,54.9,53.6,29.27,SSW,210,4.0,14.0,95,0.00,,OVC OVC///CB,0.19,WUHU216DAVISVP2,2013-01-30 22:13:00,
2013-01-30 17:18:00,54.9,53.6,29.26,SSW,193,12.0,14.0,95,0.00,,OVC OVC///CB,0.19,WUHU216DAVISVP2,2013-01-30 22:18:00,
2013-01-30 17:23:00,54.9,53.6,29.27,SSW,193,7.0,15.0,95,0.00,,OVC OVC///CB,0.19,WUHU216DAVISVP2,2013-01-30 22:23:00,
2013-01-30 17:28:00,54.9,53.6,29.25,South,188,8.0,15.0,95,0.00,,OVC OVC///CB,0.19,WUHU216DAVISVP2,2013-01-30 22:28:00,
2013-01-30 17:33:00,54.9,53.6,29.26,SSW,208,7.0,15.0,95,0.00,,OVC OVC///CB,0.19,WUHU216DAVISVP2,2013-01-30 22:33:00,
2013-01-30 17:38:00,54.8,53.5,29.27,SSE,148,6.0,15.0,95,0.00,,OVC OVC///CB,0.19,WUHU216DAVISVP2,2013-01-30 22:38:00,
2013-01-30 17:43:00,54.8,53.5,29.27,SW,221,6.0,15.0,95,0.00,,OVC OVC///CB,0.19,WUHU216DAVISVP2,2013-01-30 22:43:00,
2013-01-30 17:48:00,54.9,53.6,29.26,South,169,5.0,12.0,95,0.00,,OVC OVC///CB,0.19,WUHU216DAVISVP2,2013-01-30 22:48:00,
2013-01-30 17:53:00,54.9,53.6,29.26,SSE,165,3.0,13.0,95,0.00,,OVC OVC///CB,0.19,WUHU216DAVISVP2,2013-01-30 22:53:00,
2013-01-30 17:58:00,54.9,53.6,29.26,SSE,153,7.0,13.0,95,0.00,,OVC OVC///CB,0.19,WUHU216DAVISVP2,2013-01-30 22:58:00,
2013-01-30 18:03:00,54.9,53.6,29.25,SW,232,4.0,13.0,95,0.00,,OVC OVC///CB,0.19,WUHU216DAVISVP2,2013-01-30 23:03:00,
2013-01-30 18:08:00,54.9,53.6,29.25,SW,215,3.0,13.0,95,0.00,,OVC OVC///CB,0.19,WUHU216DAVISVP2,2013-01-30 23:08:00,
2013-01-30 18:13:00,55.0,53.7,29.25,South,190,6.0,13.0,95,0.00,,OVC OVC///CB,0.19,WUHU216DAVISVP2,2013-01-30 23:13:00,
2013-01-30 18:18:00,55.1,53.8,29.24,SSW,212,4.0,13.0,95,0.00,,OVC OVC///CB,0.19,WUHU216DAVISVP2,2013-01-30 23:18:00,
2013-01-30 18:23:00,55.2,53.6,29.24,SSW,204,5.0,15.0,94,0.00,,OVC OVC///CB,0.19,WUHU216DAVISVP2,2013-01-30 23:23:00,
2013-01-30 18:28:00,55.3,53.7,29.23,SW,232,9.0,15.0,94,0.00,,OVC OVC///CB,0.19,WUHU216DAVISVP2,2013-01-30 23:28:00,
2013-01-30 18:33:00,55.3,54.0,29.23,South,177,5.0,15.0,95,0.00,,OVC OVC///CB,0.19,WUHU216DAVISVP2,2013-01-30 23:33:00,
2013-01-30 18:38:00,55.3,54.0,29.22,SSW,207,3.0,15.0,95,0.00,,OVC OVC///CB,0.19,WUHU216DAVISVP2,2013-01-30 23:38:00,
2013-01-30 18:43:00,55.3,54.0,29.22,South,180,6.0,14.0,95,0.00,,OVC OVC///CB,0.19,WUHU216DAVISVP2,2013-01-30 23:43:00,
2013-01-30 18:48:00,55.4,54.1,29.23,SSW,198,7.0,17.0,95,0.00,,OVC OVC///CB,0.19,WUHU216DAVISVP2,2013-01-30 23:48:00,
2013-01-30 18:53:00,55.5,53.9,29.22,South,184,10.0,17.0,94,0.00,,OVC OVC///CB,0.19,WUHU216DAVISVP2,2013-01-30 23:53:00,
2013-01-30 18:58:00,55.6,53.7,29.22,SSW,204,8.0,17.0,93,0.00,,OVC OVC///CB,0.19,WUHU216DAVISVP2,2013-01-30 23:58:00,
2013-01-30 19:03:00,55.7,53.8,29.21,SSE,158,3.0,17.0,93,0.00,,OVC OVC///CB,0.19,WUHU216DAVISVP2,2013-01-31 00:03:00,
2013-01-30 19:08:00,55.7,53.8,29.21,SSW,205,6.0,15.0,93,0.00,,OVC OVC///CB,0.19,WUHU216DAVISVP2,2013-01-31 00:08:00,
2013-01-30 19:13:00,55.8,53.9,29.20,SSW,195,3.0,15.0,93,0.00,,OVC OVC///CB,0.19,WUHU216DAVISVP2,2013-01-31 00:13:00,
2013-01-30 19:18:00,55.8,53.9,29.19,South,174,11.0,14.0,93,0.00,,OVC OVC///CB,0.19,WUHU216DAVISVP2,2013-01-31 00:18:00,
2013-01-30 19:23:00,56.0,54.1,29.20,SSE,158,4.0,16.0,93,0.00,,OVC OVC///CB,0.19,WUHU216DAVISVP2,2013-01-31 00:23:00,
2013-01-30 19:28:00,56.1,53.9,29.20,South,173,5.0,16.0,92,0.00,,OVC OVC///CB,0.19,WUHU216DAVISVP2,2013-01-31 00:28:00,
2013-01-30 19:33:00,56.1,53.9,29.20,SSW,197,4.0,16.0,92,0.00,,OVC OVC///CB,0.19,WUHU216DAVISVP2,2013-01-31 00:33:00,
2013-01-30 19:38:00,56.1,53.9,29.19,SW,227,3.0,16.0,92,0.00,,OVC OVC///CB,0.19,WUHU216DAVISVP2,2013-01-31 00:38:00,
2013-01-30 19:43:00,56.1,53.9,29.20,SSW,198,3.0,15.0,92,0.00,,OVC OVC///CB,0.19,WUHU216DAVISVP2,2013-01-31 00:43:00,
2013-01-30 19:48:00,56.1,54.2,29.20,South,185,7.0,15.0,93,0.00,,OVC OVC///CB,0.19,WUHU216DAVISVP2,2013-01-31 00:48:00,
2013-01-30 19:53:00,56.0,53.8,29.20,WSW,239,10.0,20.0,92,0.00,,OVC OVC///CB,0.19,WUHU216DAVISVP2,2013-01-31 00:53:00,
2013-01-30 19:58:00,55.7,53.8,29.20,SSW,208,7.0,24.0,93,0.01,,OVC OVC///CB,0.20,WUHU216DAVISVP2,2013-01-31 00:58:00,
2013-01-30 20:03:00,55.0,53.4,29.20,SW,226,10.0,24.0,94,0.06,,OVC OVC///CB,0.25,WUHU216DAVISVP2,2013-01-31 01:03:00,
2013-01-30 20:08:00,54.4,52.5,29.19,SW,219,8.0,23.0,93,0.06,,OVC OVC///CB,0.25,WUHU216DAVISVP2,2013-01-31 01:08:00,
2013-01-30 20:13:00,54.1,52.2,29.19,WNW,295,3.0,23.0,93,0.06,,OVC OVC///CB,0.25,WUHU216DAVISVP2,2013-01-31 01:13:00,
2013-01-30 20:18:00,53.8,51.9,29.18,WSW,241,8.0,21.0,93,0.06,,OVC OVC///CB,0.25,WUHU216DAVISVP2,2013-01-31 01:18:00,
2013-01-30 20:23:00,53.7,51.5,29.18,SSW,201,2.0,18.0,92,0.06,,OVC OVC///CB,0.25,WUHU216DAVISVP2,2013-01-31 01:23:00,
2013-01-30 20:28:00,53.6,50.8,29.18,WSW,248,7.0,17.0,90,0.06,,OVC OVC///CB,0.25,WUHU216DAVISVP2,2013-01-31 01:28:00,
2013-01-30 20:33:00,53.6,50.2,29.17,West,267,5.0,19.0,88,0.06,,OVC OVC///CB,0.25,WUHU216DAVISVP2,2013-01-31 01:33:00,
2013-01-30 20:38:00,53.4,49.7,29.18,SW,226,6.0,19.0,87,0.06,,OVC OVC///CB,0.25,WUHU216DAVISVP2,2013-01-31 01:38:00,
2013-01-30 20:43:00,53.4,49.1,29.18,SW,229,11.0,19.0,85,0.06,,OVC OVC///CB,0.25,WUHU216DAVISVP2,2013-01-31 01:43:00,
2013-01-30 20:48:00,53.5,48.6,29.18,SSW,208,4.0,22.0,83,0.06,,OVC OVC///CB,0.25,WUHU216DAVISVP2,2013-01-31 01:48:00,
2013-01-30 20:53:00,53.4,48.5,29.19,WSW,257,8.0,22.0,83,0.06,,OVC OVC///CB,0.25,WUHU216DAVISVP2,2013-01-31 01:53:00,
2013-01-30 20:58:00,53.2,47.7,29.16,WSW,246,8.0,21.0,81,0.05,,OVC OVC///CB,0.25,WUHU216DAVISVP2,2013-01-31 01:58:00,
2013-01-30 21:03:00,53.2,47.7,29.20,SW,232,4.0,24.0,81,0.00,,OVC OVC///CB,0.25,WUHU216DAVISVP2,2013-01-31 02:03:00,
2013-01-30 21:08:00,53.1,47.6,29.20,SW,235,7.0,24.0,81,0.00,,OVC OVC///CB,0.25,WUHU216DAVISVP2,2013-01-31 02:08:00,
2013-01-30 21:13:00,53.0,47.5,29.20,SW,226,8.0,23.0,81,0.00,,OVC OVC///CB,0.25,WUHU216DAVISVP2,2013-01-31 02:13:00,
2013-01-30 21:18:00,52.9,47.4,29.20,SSW,193,7.0,20.0,81,0.00,,OVC OVC///CB,0.25,WUHU216DAVISVP2,2013-01-31 02:18:00,
2013-01-30 21:23:00,53.0,47.5,29.19,WSW,245,9.0,24.0,81,0.00,,OVC OVC///CB,0.25,WUHU216DAVISVP2,2013-01-31 02:23:00,
2013-01-30 21:28:00,53.0,47.5,29.19,SW,226,16.0,24.0,81,0.00,,OVC OVC///CB,0.25,WUHU216DAVISVP2,2013-01-31 02:28:00,
2013-01-30 21:33:00,52.9,47.4,29.19,SW,235,13.0,23.0,81,0.00,,OVC OVC///CB,0.25,WUHU216DAVISVP2,2013-01-31 02:33:00,
2013-01-30 21:38:00,52.9,47.4,29.20,South,181,5.0,23.0,81,0.00,,OVC OVC///CB,0.25,WUHU216DAVISVP2,2013-01-31 02:38:00,
2013-01-30 21:43:00,52.9,47.4,29.19,SW,214,7.0,23.0,81,0.00,,OVC OVC///CB,0.25,WUHU216DAVISVP2,2013-01-31 02:43:00,
2013-01-30 21:48:00,52.8,47.3,29.18,SW,231,14.0,23.0,81,0.00,,OVC OVC///CB,0.25,WUHU216DAVISVP2,2013-01-31 02:48:00,
2013-01-30 21:53:00,52.7,47.2,29.19,SW,215,9.0,22.0,81,0.00,,OVC OVC///CB,0.25,WUHU216DAVISVP2,2013-01-31 02:53:00,
2013-01-30 21:58:00,52.7,46.9,29.18,WSW,240,12.0,22.0,80,0.00,,OVC OVC///CB,0.25,WUHU216DAVISVP2,2013-01-31 02:58:00,
2013-01-30 22:03:00,52.6,47.1,29.18,SW,232,8.0,20.0,81,0.00,,OVC OVC///CB,0.25,WUHU216DAVISVP2,2013-01-31 03:03:00,
2013-01-30 22:08:00,52.5,47.0,29.18,SW,223,18.0,21.0,81,0.00,,OVC OVC///CB,0.25,WUHU216DAVISVP2,2013-01-31 03:08:00,
2013-01-30 22:13:00,51.1,43.0,29.19,WNW,288,11.0,28.0,73,0.00,,OVC OVC///CB,0.25,WUHU216DAVISVP2,2013-01-31 03:13:00,
2013-01-30 22:18:00,45.3,39.0,29.22,NW,312,6.0,28.0,78,0.00,,OVC OVC///CB,0.25,WUHU216DAVISVP2,2013-01-31 03:18:00,
2013-01-30 22:23:00,42.4,38.6,29.21,WNW,300,10.0,28.0,86,0.00,,OVC OVC///CB,0.25,WUHU216DAVISVP2,2013-01-31 03:23:00,
2013-01-30 22:28:00,40.7,38.3,29.23,NW,305,8.0,28.0,91,0.00,,OVC OVC///CB,0.25,WUHU216DAVISVP2,2013-01-31 03:28:00,
2013-01-30 22:33:00,39.7,37.6,29.25,WNW,285,6.0,25.0,92,0.00,,OVC OVC///CB,0.25,WUHU216DAVISVP2,2013-01-31 03:33:00,
2013-01-30 22:38:00,39.1,37.6,29.25,West,259,5.0,25.0,94,0.00,,OVC OVC///CB,0.25,WUHU216DAVISVP2,2013-01-31 03:38:00,
2013-01-30 22:43:00,38.9,37.7,29.26,WSW,257,3.0,19.0,95,0.01,,OVC OVC///CB,0.26,WUHU216DAVISVP2,2013-01-31 03:43:00,
2013-01-30 22:48:00,38.5,37.3,29.25,West,259,6.0,20.0,95,0.01,,OVC OVC///CB,0.26,WUHU216DAVISVP2,2013-01-31 03:48:00,
2013-01-30 22:53:00,38.1,36.6,29.25,West,273,3.0,20.0,94,0.01,,OVC OVC///CB,0.26,WUHU216DAVISVP2,2013-01-31 03:53:00,
2013-01-30 22:58:00,37.7,36.5,29.26,WNW,293,6.0,20.0,95,0.02,,OVC OVC///CB,0.27,WUHU216DAVISVP2,2013-01-31 03:58:00,
2013-01-30 23:03:00,37.5,36.3,29.25,WNW,283,9.0,21.0,95,0.02,,OVC OVC///CB,0.27,WUHU216DAVISVP2,2013-01-31 04:03:00,
2013-01-30 23:08:00,37.3,36.1,29.25,West,271,10.0,21.0,95,0.02,,OVC OVC///CB,0.27,WUHU216DAVISVP2,2013-01-31 04:08:00,
2013-01-30 23:13:00,37.2,35.7,29.25,West,276,7.0,21.0,94,0.02,,OVC OVC///CB,0.27,WUHU216DAVISVP2,2013-01-31 04:13:00,
2013-01-30 23:18:00,37.2,35.7,29.26,West,274,2.0,21.0,94,0.02,,OVC OVC///CB,0.27,WUHU216DAVISVP2,2013-01-31 04:18:00,
2013-01-30 23:23:00,37.2,36.0,29.27,WSW,248,4.0,21.0,95,0.02,,OVC OVC///CB,0.27,WUHU216DAVISVP2,2013-01-31 04:23:00,
2013-01-30 23:28:00,37.1,35.9,29.28,SW,228,8.0,21.0,95,0.02,,OVC OVC///CB,0.27,WUHU216DAVISVP2,2013-01-31 04:28:00,
2013-01-30 23:33:00,36.9,35.4,29.30,West,280,2.0,19.0,94,0.02,,OVC OVC///CB,0.27,WUHU216DAVISVP2,2013-01-31 04:33:00,
2013-01-30 23:38:00,36.7,35.2,29.30,WSW,241,4.0,20.0,94,0.03,,OVC OVC///CB,0.28,WUHU216DAVISVP2,2013-01-31 04:38:00,
2013-01-30 23:43:00,36.5,35.0,29.27,West,266,3.0,20.0,94,0.02,,OVC OVC///CB,0.28,WUHU216DAVISVP2,2013-01-31 04:43:00,
2013-01-30 23:48:00,36.3,35.1,29.29,WSW,239,3.0,20.0,95,0.02,,OVC OVC///CB,0.28,WUHU216DAVISVP2,2013-01-31 04:48:00,
2013-01-30 23:53:00,36.2,35.0,29.30,West,273,10.0,20.0,95,0.02,,OVC OVC///CB,0.28,WUHU216DAVISVP2,2013-01-31 04:53:00,
2013-01-30 23:58:00,36.0,34.5,29.30,WNW,298,5.0,17.0,94,0.01,,OVC OVC///CB,0.28,WUHU216DAVISVP2,2013-01-31 04:58:00,